STARLINK-33813, 63585

Orbit data source: Space-Track

STARLINK-33813, 63585 is a payload satellite in LEO that was launched on Mon, 14 Apr 2025 UTC via an FALCON 9 launch vehicle from the Air Force Eastern Test Range (AFETR). Payload-class satellites include a variety of spacecraft equipped with specific instruments for various scientific and technological missions. These include communications satellites like Starlink; space stations such as the ISS; scientific satellites like the Hubble; Earth observation satellites from companies like Planet Labs, Umbra, and HawkEye 360; GPS; miniature CubeSats for education and research; and military/defense satellites.

Loading next visibility...
Identifier
63585, 2025-076S
Orbit
LEO
Last TLE update
10 hours ago
Origin
Manufacturer
SpaceX/Seattle
Mission
Operational spacecraft
Bus & Motor
STARLINK V2MO, Unknown motor
Mass
575 kg wet, ~530 kg dry
Launch date (UTC)
2025-04-14 (1 month ago)
Launch vehicle
FALCON 9
Launch site
Air Force Eastern Test Range (AFETR)
Object type
Payload
Rocket body
Debris
Shape & HBR
Unknown
Radar Cross Section
Large (>1 m²)

Expand to show TLE details & history

TLE from 10 hours ago
0 STARLINK-33813
1 63585U 25076S   25140.25002315 -.00024560  00000-0 -58241-3 0  9999
2 63585  42.9994 181.5836 0001297 262.3781  17.5865 15.40707717  6722
Epoch: 2025-05-20T06:00Z
TLE epoch observation values (Epoch: 2025-05-20T06:00:02Z)
Latitude
-42.35947°
Longitude
136.91263°
Altitude
456.185 km
Speed
7.64 km/s
True Right ascension
07h 00m 17s
True Declination
-42° 10' 51"
Sunlit
Object was in daylight at epoch
Visualization orbit readout
Latitude
27.71237°
Longitude
-3.11186°
Altitude
444.848 km
Speed
7.649 km/s
Apparent Right ascension
18h 13m 09s
Apparent Declination
-10° 28' 46"
Sunlit
Object is in daylight
Visualization observer readout
Local Sidereal Time
01:10:18
Azimuth
270.973° WNW
Elevation
-17.626°
Doppler factor
1
Orbital elements
Apogee altitude
446.861 km
Perigee altitude
445.091 km
Semi-major axis
6,824.113 km
Eccentricity
0.00013
Inclination
42.9994°
RAAN
181.5836°
Arg. of periapsis
262.3781°
True anomaly
Unknown
Mean anomaly
17.5865°
Eccentric anomaly
Unknown
Mean motion
3.85012 °/min
Orbital period
93.5 mins
BSTAR
-0.00058241
Loading maneuver chart data...
Loading SW <> Apogee altitude chart data...
Loading historical data...
Loading historical data...
Loading historical data...
Loading historical data...
Loading historical data...
Loading historical data...
Loading historical data...

STARLINK-33813 Visibility forecast

Observer location: undefined°, undefined°

Span
Click to sort rows by Start time (UTC) header in descending order
Start Az.
Max El. time (UTC)
Max El. Az.
Max El.
End time (UTC)
End Az.
6 mins2025-05-21 05:53:29.155Z215.825° SW2025-05-21 05:56:29.155Z142.773° SSE30.346°2025-05-21 05:59:29.155Z83.418° E
5 mins2025-05-21 07:32:29.155Z271.646° WNW2025-05-21 07:34:29.155Z12.034° NNE41.685°2025-05-21 07:37:29.155Z69.733° E
5 mins2025-05-21 09:10:29.155Z295.349° NW2025-05-21 09:12:29.155Z357.354° N37.92°2025-05-21 09:15:29.155Z80.517° E
5 mins2025-05-21 10:48:29.155Z282.155° WNW2025-05-21 10:50:29.155Z237.397° WSW41.941°2025-05-21 10:53:29.155Z121.201° SE
|